(257388) = 2009 SD154

Discovered at Kitt Peak on 2009-09-20 by Spacewatch.

Orbit

Orbit type: Jupiter Trojan

Note: WebGL enabled browser required.

epoch2023-02-25.0
epoch JD2460000.5
perihelion date2012-06-18.58209
perihelion JD2456097.08209
argument of perihelion (°)86.17382
ascending node (°)18.49025
inclination (°)4.17794
eccentricity0.0703669
perihelion distance (AU)4.8049904
Tisserand w.r.t. Jupiter3.0
ΔV w.r.t. Earth (km/sec)12.3
semimajor axis (AU)5.1686956
mean anomaly (°)327.39908
mean daily motion (°/day)0.08387500
aphelion distance (AU)5.532
period (years)11.75
P-vector [x]-0.25231035
P-vector [y]0.85637439
P-vector [z]0.45051348
Q-vector [x]-0.96737047
Q-vector [y]-0.23434984
Q-vector [z]-0.09630429
absolute magnitude13.96
phase slope0.15
uncertainty0
referenceMPO 730074
observations used306
oppositions16
arc length (days)8795
first opposition used1998
last opposition used2022
residual rms (arc-secs)0.75
perturbers coarse indicatorM-v
perturbers precise indicator003El
first observation date used1998-11-25.0
last observation date used2022-12-24.0
computer nameMPCLINUX
JD of orbit computation2456760.832388
perihelion JD uncertainty (days)1.2392E-03
argument of perihelion uncertainty (°)1.4907E-04
ascending node uncertainty (°)9.8789E-05
inclination uncertainty (°)9.7597E-06
eccentricity uncertainty 6.3151E-08
perihelion distance uncertainty (AU)3.4691E-07
Minimum Orbit Intersection Distances (in AU)
for orbit epoch: 2460000.5, reference: E2022-YF5
Mercury4.48901
Venus4.08688
Earth3.82451
Mars3.1827
Jupiter0.19594
Saturn4.24879
Uranus13.3835
Neptune24.6171

Observations

309 total observations over interval: 1998 11 25.20695 – 2022 12 24.218822
These data are available for download (format description).

Date (UT) J2000 RA J2000 Dec Magn Location Ref
1998 11 25.20695 02 32 39.33 +17 26 01.7 20.7 V 691 – Steward Observatory, Kitt Peak-Spacewatch MPS 305081
1998 11 25.22922 02 32 38.72 +17 25 59.6 20.6 V 691 – Steward Observatory, Kitt Peak-Spacewatch MPS 305081
1998 11 25.25175 02 32 38.06 +17 25 56.6 21.0 V 691 – Steward Observatory, Kitt Peak-Spacewatch MPS 305081
2002 02 07.35527 10 50 48.97 +11 08 15.1 20.2 R 695 – Kitt Peak MPS 305081
2002 02 07.45662 10 50 46.16 +11 08 31.2   695 – Kitt Peak MPS 305081
2003 04 04.29040 12 45 03.39 -04 13 39.8 21.9 V 691 – Steward Observatory, Kitt Peak-Spacewatch MPS 305081
2003 04 04.32085 12 45 02.43 -04 13 35.3 21.3 V 691 – Steward Observatory, Kitt Peak-Spacewatch MPS 305081
2003 04 04.34797 12 45 01.61 -04 13 30.9 21.9 V 691 – Steward Observatory, Kitt Peak-Spacewatch MPS 305081
2003 04 30.16328 12 33 19.34 -03 12 06.8 21.8 V 691 – Steward Observatory, Kitt Peak-Spacewatch MPS 305081
2003 04 30.19258 12 33 18.65 -03 12 04.2 21.7 V 691 – Steward Observatory, Kitt Peak-Spacewatch MPS 305081
2003 04 30.22016 12 33 18.02 -03 12 00.9 21.7 V 691 – Steward Observatory, Kitt Peak-Spacewatch MPS 305081
2008 07 30.37008 23 13 55.28 -08 20 46.1   691 – Steward Observatory, Kitt Peak-Spacewatch MPS 305081
2008 07 30.38766 23 13 54.95 -08 20 49.3   691 – Steward Observatory, Kitt Peak-Spacewatch MPS 305081
2008 07 30.40526 23 13 54.64 -08 20 51.3   691 – Steward Observatory, Kitt Peak-Spacewatch MPS 305081
2008 09 23.27211 22 50 01.24 -10 34 37.1 21.0 V G96 – Mt. Lemmon Survey MPS 305081
2008 09 23.27943 22 50 01.06 -10 34 38.3 20.8 V G96 – Mt. Lemmon Survey MPS 305081
2008 09 23.28676 22 50 00.92 -10 34 38.3 20.9 V G96 – Mt. Lemmon Survey MPS 305081
2008 09 23.29405 22 50 00.67 -10 34 40.1 21.2 V G96 – Mt. Lemmon Survey MPS 305081
2009 09 12.27724 01 05 20.28 +06 20 28.5   691 – Steward Observatory, Kitt Peak-Spacewatch MPS 299505
2009 09 12.29483 01 05 19.89 +06 20 26.2   691 – Steward Observatory, Kitt Peak-Spacewatch MPS 299505
2009 09 12.31244 01 05 19.49 +06 20 24.4   691 – Steward Observatory, Kitt Peak-Spacewatch MPS 299505
2009 09 20.24834 01 01 58.04 +06 03 05.6 21.1 V 691 – Steward Observatory, Kitt Peak-Spacewatch MPS 297111
2009 09 20.26596 01 01 57.54 +06 03 03.3 20.8 V 691 – Steward Observatory, Kitt Peak-Spacewatch MPS 297111
2009 09 20.28359 01 01 57.06 +06 03 00.8 21.0 V 691 – Steward Observatory, Kitt Peak-Spacewatch MPS 297111
2009 09 24.27610 01 00 06.47 +05 53 23.8 21.1 V 691 – Steward Observatory, Kitt Peak-Spacewatch MPS 297111
2009 09 24.29376 01 00 05.94 +05 53 21.6 21.1 V 691 – Steward Observatory, Kitt Peak-Spacewatch MPS 297111
2009 09 24.31153 01 00 05.44 +05 53 18.2 20.4 V 691 – Steward Observatory, Kitt Peak-Spacewatch MPS 297111
2009 10 15.25038 00 49 42.38 +04 58 32.5 20.9 V G96 – Mt. Lemmon Survey MPS 299505
2009 10 15.25743 00 49 42.16 +04 58 32.0 20.1 V G96 – Mt. Lemmon Survey MPS 299505
2009 10 15.26433 00 49 41.95 +04 58 30.3 20.9 V G96 – Mt. Lemmon Survey MPS 299505
2009 10 15.27127 00 49 41.73 +04 58 29.2 20.5 V G96 – Mt. Lemmon Survey MPS 299505
2009 11 18.17776 00 36 36.07 +03 52 29.2 20.9 V G96 – Mt. Lemmon Survey MPS 303412
2009 11 18.18495 00 36 35.96 +03 52 28.8 21.1 V G96 – Mt. Lemmon Survey MPS 303412
2009 11 18.19197 00 36 35.82 +03 52 28.2 20.9 V G96 – Mt. Lemmon Survey MPS 303412
2009 11 18.19911 00 36 35.74 +03 52 28.0 21.1 V G96 – Mt. Lemmon Survey MPS 303412
2010 10 29.567754 03 12 30.072 +20 33 06.15 20.65 i F51 – Pan-STARRS 1, Haleakala MPS 366896
2010 10 29.579944 03 12 29.675 +20 33 05.12 20.60 i F51 – Pan-STARRS 1, Haleakala MPS 366896
2010 10 30.534530 03 11 58.879 +20 31 40.21 20.60 r F51 – Pan-STARRS 1, Haleakala MPS 366896
2010 10 30.546452 03 11 58.490 +20 31 39.08 20.72 r F51 – Pan-STARRS 1, Haleakala MPS 366896
2010 10 31.01545 03 11 43.31 +20 30 54.7 20.3 R 461 – University of Szeged, Piszkesteto Stn. (Konkol MPS 353895
2010 10 31.06602 03 11 41.59 +20 30 50.7 20.7 R 461 – University of Szeged, Piszkesteto Stn. (Konkol MPS 353895
2010 11 11.32091 03 05 22.23 +20 11 42.0 20.3 V G96 – Mt. Lemmon Survey MPS 355527
2010 11 11.32729 03 05 21.98 +20 11 41.2 20.2 V G96 – Mt. Lemmon Survey MPS 355527
2010 11 11.33366 03 05 21.76 +20 11 40.7 20.1 V G96 – Mt. Lemmon Survey MPS 355527
2010 11 11.34000 03 05 21.55 +20 11 39.8 20.2 V G96 – Mt. Lemmon Survey MPS 355527
2011 12 25.13614 05 44 10.87 +28 17 12.9 20.6 V 691 – Steward Observatory, Kitt Peak-Spacewatch MPS 405829
2011 12 25.15190 05 44 10.27 +28 17 13.2 20.7 V 691 – Steward Observatory, Kitt Peak-Spacewatch MPS 405829
2011 12 25.16774 05 44 09.68 +28 17 13.0 20.7 V 691 – Steward Observatory, Kitt Peak-Spacewatch MPS 405829
2011 12 25.24175 05 44 06.82 +28 17 11.8 20.1 V G96 – Mt. Lemmon Survey MPS 405829
2011 12 25.24862 05 44 06.57 +28 17 11.9 19.9 V G96 – Mt. Lemmon Survey MPS 405829
2011 12 25.25553 05 44 06.32 +28 17 11.9 20.0 V G96 – Mt. Lemmon Survey MPS 405829
2011 12 25.26244 05 44 06.00 +28 17 11.5 19.9 V G96 – Mt. Lemmon Survey MPS 405829
2012 01 04.28113 05 38 02.86 +28 13 50.8 19.5 V G96 – Mt. Lemmon Survey MPS 407081
2012 01 04.28895 05 38 02.58 +28 13 50.7 19.7 V G96 – Mt. Lemmon Survey MPS 407081
2012 01 04.29683 05 38 02.32 +28 13 50.7 19.8 V G96 – Mt. Lemmon Survey MPS 407081
2012 01 04.30463 05 38 02.04 +28 13 50.0 19.9 V G96 – Mt. Lemmon Survey MPS 407081
2013 01 10.22608 08 48 30.80 +22 59 56.7   691 – Steward Observatory, Kitt Peak-Spacewatch MPS 450778
2013 01 10.24378 08 48 30.25 +22 59 58.6   691 – Steward Observatory, Kitt Peak-Spacewatch MPS 450778
2013 01 10.26147 08 48 29.69 +23 00 01.6   691 – Steward Observatory, Kitt Peak-Spacewatch MPS 450778
2013 01 22.41969 08 41 41.56 +23 26 46.1 20.4 V G96 – Mt. Lemmon Survey MPS 453104
2013 01 22.42724 08 41 41.31 +23 26 47.4 20.5 V G96 – Mt. Lemmon Survey MPS 453104
2013 01 22.43486 08 41 41.02 +23 26 48.1 20.5 V G96 – Mt. Lemmon Survey MPS 453104
2013 01 22.44281 08 41 40.74 +23 26 48.8 20.8 V G96 – Mt. Lemmon Survey MPS 453104
2013 02 06.27843 08 32 59.02 +23 54 20.2 20.2 V 703 – Catalina Sky Survey MPS 456026
2013 02 06.28411 08 32 58.81 +23 54 21.1 20.5 V 703 – Catalina Sky Survey MPS 456026
2013 02 06.28985 08 32 58.63 +23 54 22.4 21.4 V 703 – Catalina Sky Survey MPS 456026
2013 02 06.29546 08 32 58.38 +23 54 22.7 20.8 V 703 – Catalina Sky Survey MPS 456026
2013 02 12.29987 08 29 39.131 +24 02 48.05 20.5 w F51 – Pan-STARRS 1, Haleakala MPS 456026
2013 02 12.31310 08 29 38.706 +24 02 49.11 20.4 w F51 – Pan-STARRS 1, Haleakala MPS 456026
2013 02 12.32631 08 29 38.261 +24 02 50.10 20.6 w F51 – Pan-STARRS 1, Haleakala MPS 456026
2014 02 22.28261 11 09 45.99 +08 41 15.1   691 – Steward Observatory, Kitt Peak-Spacewatch MPS 503738
2014 02 22.30035 11 09 45.44 +08 41 18.5   691 – Steward Observatory, Kitt Peak-Spacewatch MPS 503738
2014 02 22.31810 11 09 44.91 +08 41 21.5   691 – Steward Observatory, Kitt Peak-Spacewatch MPS 503738
2014 04 01.13658 10 51 18.53 +10 14 25.2   691 – Steward Observatory, Kitt Peak-Spacewatch MPS 509592
2014 04 01.14753 10 51 18.25 +10 14 26.4   691 – Steward Observatory, Kitt Peak-Spacewatch MPS 509592
2014 04 01.15848 10 51 17.99 +10 14 27.6   691 – Steward Observatory, Kitt Peak-Spacewatch MPS 509592
2014 04 04.25233 10 50 08.145 +10 19 05.46 20.9 w F51 – Pan-STARRS 1, Haleakala MPS 510904
2014 04 04.26422 10 50 07.874 +10 19 06.23 20.9 w F51 – Pan-STARRS 1, Haleakala MPS 510904
2014 04 04.27616 10 50 07.603 +10 19 07.54 21.0 w F51 – Pan-STARRS 1, Haleakala MPS 510904
2014 04 09.13501 10 48 29.60 +10 25 02.5 21.2 V 691 – Steward Observatory, Kitt Peak-Spacewatch MPS 510904
2014 04 09.14596 10 48 29.39 +10 25 03.6 21.2 V 691 – Steward Observatory, Kitt Peak-Spacewatch MPS 510904
2014 04 09.15691 10 48 29.13 +10 25 04.1 20.7 V 691 – Steward Observatory, Kitt Peak-Spacewatch MPS 510904
2015 02 27.43607 13 24 39.45 -08 34 12.3 20.5 V G96 – Mt. Lemmon Survey MPS 585333
2015 02 27.44539 13 24 39.30 -08 34 11.7 20.8 V G96 – Mt. Lemmon Survey MPS 585333
2015 02 27.45472 13 24 39.18 -08 34 11.1 20.9 V G96 – Mt. Lemmon Survey MPS 585333
2015 02 27.46405 13 24 39.03 -08 34 10.1 20.9 V G96 – Mt. Lemmon Survey MPS 585333
2015 03 21.47678 13 16 48.819 -07 57 07.62 20.8 w F51 – Pan-STARRS 1, Haleakala MPS 594741
